THOR ABLESTAR DEB, 323

Orbit data source: Space-Track

THOR ABLESTAR DEB, 323 is space debris in LEO originally from a launch on Thu, 29 Jun 1961 UTC launched from the Air Force Eastern Test Range (AFETR). Debris objects in space refer to the collection of defunct objects orbiting the Earth. Examples of debris include non-operational satellites, rocket bodies, and fragments generated from explosions, collisions, or faulty payload assembly.

Loading next visibility...
Identifier
323, 1961-015CZ
Orbit
LEO
Country
Flag of USUS
Related business
Manufacturer
Unknown
Mission
Spacecraft
Bus & Motor
Unknown
Mass
Unknown
Launch date (UTC)
1961-06-29 (64 years ago)
Launch vehicle
Unknown
Launch site
Air Force Eastern Test Range (AFETR)
Object type
Payload
Rocket body
Debris
Shape & HBR
Unknown
Radar Cross Section
Small (<0.1 m²)

Expand to show TLE details & history
Last TLE update: 13 hours ago

TLE from 13 hours ago
0 THOR ABLESTAR DEB
1 00323U 61015CZ  25257.58465776  .00000122  00000-0  99730-4 0  9997
2 00323  66.8381  80.4180 0083291 287.6616  71.5394 14.16010287289448
Epoch: 2025-09-14T14:01Z
TLE epoch observation values (Epoch: 2025-09-14T14:01:54.43Z)
Latitude
-0.00005°
Longitude
-123.86037°
Altitude
822.397 km
Speed
7.452 km/s
True Right ascension
05h 21m 40s
True Declination
0° 00' 00"
Sunlit
Object was in daylight at epoch
Visualization orbit readout
Latitude
Unknown
Longitude
Unknown
Altitude
Unknown
Speed
Unknown
Apparent Right ascension
Unknown
Apparent Declination
Unknown
Sunlit
N/A
Visualization observer readout
Local Sidereal Time
20:03:14
Azimuth
Unknown
Elevation
Unknown
Doppler factor
Unknown
Orbital elements
Apogee altitude
897.344 km
Perigee altitude
777.149 km
Semi-major axis
7,215.384 km
Eccentricity
0.00833
Inclination
66.8381°
RAAN
80.418°
Arg. of periapsis
287.6616°
True anomaly
72.44769°
Mean anomaly
71.5394°
Eccentric anomaly
71.99325°
Mean motion
3.54123 °/min
Orbital period
101.66 mins
BSTAR
0.00009973
Loading maneuver chart data...
Computing Atmospheric mass density...

Documentation

Showing up to 5 results
|